Location: Hokitika
(42.7170°S, 170.9670°E)
Time: 13:44:51
(UTC+13:00)

Terra - Pass Details

Date: 24 January 2019
Orbit: 701 x 703 km, 98.2° (Epoch: 16 February)

Event Time Altitude Azimuth Distance (km) Brightness Sun altitude
Rises 23:11:23 0° 148° (SSE) 3,131 5.4 -18.3°
Reaches altitude 10° 23:14:37 10° 125° (SE) 2,202 4.3 -18.7°
Enters shadow 23:16:51 15° 98° (E) 1,872 3.7 -18.9°
